Weather History for KCBK - January, 2013

Change the Weather History Date:

Monday, January 21, 2013

  Actual Average (KGLD) Record (KGLD)
Temperature  
Mean Temperature 28 °F 30 °F  
Max Temperature 42 °F 42 °F 73 °F (1950)
Min Temperature 14 °F 17 °F -16 °F (1930)
Degree Days  
Heating Degree Days 37 35  
Month to date heating degree days 737  
Since 1 July heating degree days 3144  
Cooling Degree Days 0 0  
Month to date cooling degree days 0  
Year to date cooling degree days 0  
Moisture  
Dew Point 23 °F    
Average Humidity 88    
Maximum Humidity 100    
Minimum Humidity 53    
Precipitation  
Precipitation 0.00 in 0.01 in 0.06 in (1941)
Month to date precipitation 0.24  
Year to date precipitation 0.24  
Snow  
Snow 0.00 in 0.20 in - ()
Month to date snowfall 3.8  
Since 1 July snowfall 16.5  
Snow Depth -    
Sea Level Pressure  
Sea Level Pressure 30.20 in    
Wind  
Wind Speed 7 mph (WSW)    
Max Wind Speed 20 mph    
Max Gust Speed 23 mph    
Visibility 10 miles    
Events      
T = Trace of Precipitation, MM = Missing Value Source: NWS Daily Summary

Daily Weather History Graph

Daily Weather History Graph

Search for Another Location

Airport or City:

Trip Planner

Search our weather history database for the weather conditions in past years. The results will help you decide how hot, cold, wet, or windy it might be!

Date:

Astronomy

Jan. 21, 2013 Rise Set
Actual Time 7:59 AM CST 5:52 PM CST
Civil Twilight 7:30 AM CST 6:21 PM CST
Nautical Twilight 6:57 AM CST 6:53 PM CST
Astronomical Twilight 6:25 AM CST 7:25 PM CST
Moon 1:33 PM CST (1/21) 3:29 AM CST (1/21)
Length of Visible Light 10h 50m
Length of Day
9h 52m
Waxing Gibbous, 75% of the Moon is Illuminated
Jan 21
Waxing Gibbous
Jan 26
Full
Feb 3
Last Quarter
Feb 10
New
Feb 17
First Quarter

Hourly Weather History & Observations

Time (CST) Temp. Windchill Dew Point Humidity Pressure Visibility Wind Dir Wind Speed Gust Speed Precip Events Conditions
12:15 AM 21.2 °F 13.6 °F 19.4 °F 93% 30.32 in 10.0 mi NNE 5.8 mph - N/A   Scattered Clouds
12:35 AM 19.4 °F - 19.4 °F 100% 30.32 in 10.0 mi Calm Calm - N/A   Scattered Clouds
12:55 AM 19.4 °F - 19.4 °F 100% 30.32 in 10.0 mi Calm Calm - N/A   Scattered Clouds
1:15 AM 19.4 °F - 19.4 °F 100% 30.32 in 10.0 mi Calm Calm - N/A   Clear
1:35 AM 17.6 °F - 17.6 °F 100% 30.31 in 10.0 mi Calm Calm - N/A   Clear
1:55 AM 17.6 °F 10.7 °F 17.6 °F 100% 30.30 in 10.0 mi West 4.6 mph - N/A   Clear
2:15 AM 17.6 °F 10.7 °F 17.6 °F 100% 30.30 in 10.0 mi West 4.6 mph - N/A   Clear
2:35 AM 15.8 °F 8.6 °F 15.8 °F 100% 30.31 in 10.0 mi West 4.6 mph - N/A   Clear
3:15 AM 15.8 °F 8.6 °F 15.8 °F 100% 30.31 in 10.0 mi SW 4.6 mph - N/A   Clear
3:55 AM 14.0 °F 5.1 °F 14.0 °F 100% 30.31 in 10.0 mi WSW 5.8 mph - N/A   Scattered Clouds
4:15 AM 14.0 °F 3.9 °F 14.0 °F 100% 30.29 in 10.0 mi SW 6.9 mph - N/A   Scattered Clouds
4:35 AM 14.0 °F 3.9 °F 14.0 °F 100% 30.28 in 10.0 mi WSW 6.9 mph - N/A   Clear
4:55 AM 14.0 °F 3.9 °F 14.0 °F 100% 30.28 in 10.0 mi SW 6.9 mph - N/A   Scattered Clouds
5:15 AM 14.0 °F 2.9 °F 14.0 °F 100% 30.28 in 10.0 mi WSW 8.1 mph - N/A   Scattered Clouds
5:35 AM 15.8 °F 5.1 °F 14.0 °F 93% 30.27 in 10.0 mi SW 8.1 mph - N/A   Scattered Clouds
5:55 AM 17.6 °F 5.7 °F 17.6 °F 100% 30.27 in 7.0 mi SW 10.4 mph - N/A   Mostly Cloudy
6:15 AM 19.4 °F 7.9 °F 19.4 °F 100% 30.26 in 7.0 mi SW 10.4 mph - N/A   Overcast
6:35 AM 21.2 °F 7.3 °F 21.2 °F 100% 30.26 in 7.0 mi SW 16.1 mph - N/A   Overcast
6:55 AM 21.2 °F 9.5 °F 21.2 °F 100% 30.25 in 7.0 mi SW 11.5 mph 16.1 mph N/A   Overcast
7:15 AM 19.4 °F 8.6 °F 19.4 °F 100% 30.25 in 10.0 mi SW 9.2 mph - N/A   Mostly Cloudy
7:35 AM 19.4 °F 6.6 °F 19.4 °F 100% 30.25 in 10.0 mi SW 12.7 mph - N/A   Scattered Clouds
7:55 AM 19.4 °F 6.6 °F 19.4 °F 100% 30.24 in 10.0 mi SSW 12.7 mph - N/A   Clear
8:15 AM 19.4 °F 6.0 °F 19.4 °F 100% 30.23 in 10.0 mi SSW 13.8 mph - N/A   Mostly Cloudy
8:35 AM 21.2 °F 9.5 °F 21.2 °F 100% 30.23 in 10.0 mi SW 11.5 mph - N/A   Mostly Cloudy
8:55 AM 21.2 °F 7.3 °F 21.2 °F 100% 30.23 in 10.0 mi SSW 16.1 mph - N/A   Clear
9:15 AM 23.0 °F 8.3 °F 23.0 °F 100% 30.22 in 10.0 mi SW 19.6 mph 23.0 mph N/A   Clear
9:35 AM 24.8 °F 11.9 °F 24.8 °F 100% 30.21 in 10.0 mi SW 16.1 mph - N/A   Clear
9:55 AM 28.4 °F 16.2 °F 26.6 °F 93% 30.20 in 10.0 mi SW 17.3 mph - N/A   Clear
10:15 AM 28.4 °F 16.6 °F 28.4 °F 100% 30.20 in 10.0 mi SSW 16.1 mph - N/A   Clear
10:35 AM 32.0 °F 20.5 °F 28.4 °F 87% 30.20 in 10.0 mi SW 18.4 mph 21.9 mph N/A   Clear
10:55 AM 32.0 °F 23.0 °F 28.4 °F 87% 30.23 in 10.0 mi West 11.5 mph - N/A   Clear
11:15 AM 33.8 °F 26.4 °F 28.4 °F 81% 30.24 in 10.0 mi West 9.2 mph - N/A   Clear
11:35 AM 33.8 °F 27.7 °F 28.4 °F 81% 30.24 in 10.0 mi West 6.9 mph - N/A   Clear
11:55 AM 35.6 °F 29.9 °F 28.4 °F 75% 30.22 in 10.0 mi West 6.9 mph - N/A   Clear
12:15 PM 35.6 °F 32.8 °F 28.4 °F 75% 30.20 in 10.0 mi SW 3.5 mph - N/A   Clear
12:35 PM 37.4 °F - 28.4 °F 70% 30.19 in 10.0 mi Calm Calm - N/A   Clear
12:55 PM 37.4 °F 32.8 °F 28.4 °F 70% 30.18 in 10.0 mi West 5.8 mph - N/A   Clear
1:15 PM 39.2 °F 35.9 °F 28.4 °F 65% 30.16 in 10.0 mi West 4.6 mph - N/A   Clear
1:35 PM 41.0 °F 39.0 °F 28.4 °F 61% 30.16 in 10.0 mi NW 3.5 mph - N/A   Clear
1:55 PM 41.0 °F 39.0 °F 28.4 °F 61% 30.16 in 10.0 mi WNW 3.5 mph - N/A   Clear
2:15 PM 41.0 °F 38.0 °F 26.6 °F 57% 30.15 in 10.0 mi North 4.6 mph - N/A   Clear
2:55 PM 42.8 °F 40.1 °F 26.6 °F 53% 30.14 in 10.0 mi North 4.6 mph - N/A   Clear
3:15 PM 42.8 °F 40.1 °F 26.6 °F 53% 30.13 in 10.0 mi NNE 4.6 mph - N/A   Clear
3:35 PM 42.8 °F 37.5 °F 26.6 °F 53% 30.13 in 10.0 mi NNE 9.2 mph - N/A   Clear
3:55 PM 41.0 °F 35.8 °F 26.6 °F 57% 30.13 in 10.0 mi NNE 8.1 mph - N/A   Clear
4:15 PM 41.0 °F 35.2 °F 26.6 °F 57% 30.13 in 10.0 mi NNE 9.2 mph - N/A   Clear
4:35 PM 41.0 °F 35.2 °F 26.6 °F 57% 30.13 in 10.0 mi NE 9.2 mph - N/A   Clear
4:55 PM 37.4 °F 30.3 °F 26.6 °F 65% 30.13 in 10.0 mi NNE 10.4 mph - N/A   Clear
5:15 PM 37.4 °F 30.8 °F 26.6 °F 65% 30.13 in 10.0 mi NE 9.2 mph - N/A   Clear
5:35 PM 33.8 °F 26.4 °F 26.6 °F 75% 30.12 in 10.0 mi NE 9.2 mph - N/A   Clear
5:55 PM 32.0 °F 24.2 °F 24.8 °F 75% 30.12 in 10.0 mi NE 9.2 mph - N/A   Clear
6:15 PM 30.2 °F 21.9 °F 24.8 °F 80% 30.12 in 10.0 mi NE 9.2 mph - N/A   Clear
6:55 PM 28.4 °F 19.1 °F 24.8 °F 86% 30.12 in 10.0 mi NE 10.4 mph - N/A   Clear
7:15 PM 30.2 °F 21.3 °F 26.6 °F 86% 30.12 in 10.0 mi ENE 10.4 mph - N/A   Clear
7:35 PM 28.4 °F 18.0 °F 26.6 °F 93% 30.12 in 10.0 mi East 12.7 mph - N/A   Clear
7:55 PM 28.4 °F 19.7 °F 26.6 °F 93% 30.13 in 10.0 mi ENE 9.2 mph - N/A   Clear
8:15 PM 26.6 °F 16.8 °F 26.6 °F 100% 30.14 in 10.0 mi East 10.4 mph - N/A   Clear
8:35 PM 24.8 °F 14.6 °F 24.8 °F 100% 30.14 in 10.0 mi ENE 10.4 mph - N/A   Clear
8:55 PM 23.0 °F 13.9 °F 23.0 °F 100% 30.14 in 10.0 mi ENE 8.1 mph - N/A   Clear
9:15 PM 23.0 °F 13.1 °F 23.0 °F 100% 30.14 in 10.0 mi East 9.2 mph - N/A   Clear
9:35 PM 21.2 °F 10.9 °F 21.2 °F 100% 30.14 in 10.0 mi East 9.2 mph - N/A   Clear
9:55 PM 21.2 °F 11.7 °F 21.2 °F 100% 30.14 in 10.0 mi ESE 8.1 mph - N/A   Clear
10:15 PM 21.2 °F 10.1 °F 21.2 °F 100% 30.14 in 10.0 mi East 10.4 mph - N/A   Clear
10:35 PM 19.4 °F 7.9 °F 19.4 °F 100% 30.14 in 10.0 mi East 10.4 mph - N/A   Scattered Clouds
10:55 PM 19.4 °F 7.9 °F 19.4 °F 100% 30.13 in 7.0 mi East 10.4 mph - N/A   Mostly Cloudy
11:15 PM 19.4 °F 10.4 °F 19.4 °F 100% 30.14 in 10.0 mi East 6.9 mph - N/A   Mostly Cloudy
11:35 PM 17.6 °F 7.3 °F 17.6 °F 100% 30.12 in 10.0 mi ESE 8.1 mph - N/A   Mostly Cloudy
11:55 PM 19.4 °F 11.5 °F 19.4 °F 100% 30.12 in 7.0 mi SE 5.8 mph - N/A   Overcast